[Iaude] MPEC E16: 2024 EE [a=2.24,e=0.55,i=6.6,H=24.6]
    mpec at cfa.harvard.edu 
    mpec at cfa.harvard.edu
       
    Sat Mar  2 18:30:57 EST 2024
    
    
  
M.P.E.C. 2024-E16                                 Issued 2024 March 2, 23:29 UT
     The Minor Planet Electronic Circulars contain information on unusual
         minor planets, routine data on comets and natural satellites,
         and occasional editorial announcements.  They are published
    on behalf of Division F of the International Astronomical Union by the
          Minor Planet Center, Smithsonian Astrophysical Observatory,
                          Cambridge, MA 02138, U.S.A.
			  
             Prepared using the Tamkin Foundation Computer Network
                              MPC at CFA.HARVARD.EDU
            URL https://www.minorplanetcenter.net/    ISSN 1523-6714
                                    2024 EE                                     
Observations:
     K24E00E  C2024 02 25.39702108 21 48.779+34 50 22.07         18.76GVEE016F51
     K24E00E  C2024 02 25.40155908 21 54.314+34 51 46.41         18.09GVEE016F52
     K24E00E  C2024 02 25.41152208 22 06.536+34 54 50.44         18.64GVEE016F51
     K24E00E  C2024 02 25.41614308 22 12.202+34 56 15.76         18.47GVEE016F52
     K24E00E  C2024 02 25.42596808 22 24.371+34 59 17.16         18.65GVEE016F51
     K24E00E  C2024 02 25.43083108 22 30.394+35 00 46.64         18.72GVEE016F52
     K24E00E  C2024 02 25.44066808 22 42.665+35 03 48.05               VEE016F51
     K24E00E  C2024 02 25.44543508 22 48.625+35 05 15.31         18.20GVEE016F52
     K24E00E  C2024 02 26.35654808 47 26.299+40 10 21.69               VEE016F51
     K24E00E  C2024 02 26.37085608 47 51.035+40 15 25.08         18.46GVEE016F51
     K24E00E  C2024 02 26.37901408 48 05.148+40 18 17.01         18.48GVEE016F52
     K24E00E  C2024 02 26.38409908 48 13.976+40 20 04.19         18.44GVEE016F51
     K24E00E  C2024 02 26.39336508 48 30.091+40 23 19.05               VEE016F52
     K24E00E  C2024 02 26.39707108 48 36.520+40 24 36.68               VEE016F51
     K24E00E  C2024 02 26.40828608 48 56.185+40 28 31.29         18.51GVEE016F52
     K24E00E  C2024 03 01.58219113 10 52.152+56 24 23.07               VEE016F52
     K24E00E  C2024 03 01.59481313 11 48.187+56 23 05.60         18.27GVEE016F52
     K24E00E  C2024 03 01.60723313 12 43.339+56 21 45.99         17.79GVEE016F52
     K24E00E*1C2024 03 02.36148814 07 07.817+54 23 54.17         18.25GVEE016G96
     K24E00E 1C2024 03 02.36694214 07 28.160+54 22 50.99         18.47GVEE016G96
     K24E00E 1C2024 03 02.37238914 07 48.248+54 21 48.28         18.42GVEE016G96
     K24E00E 1C2024 03 02.37784514 08 08.376+54 20 44.92         18.54GVEE016G96
     K24E00E 1C2024 03 02.40182614 09 35.878+54 16 02.28         18.76GVEE016G96
     K24E00E 1C2024 03 02.40224014 09 37.393+54 15 57.60         18.68GVEE016G96
     K24E00E 1C2024 03 02.40265514 09 38.876+54 15 52.56         18.35GVEE016G96
     K24E00E 1C2024 03 02.40307014 09 40.374+54 15 47.66         18.68GVEE016G96
     K24E00E mC2024 03 02.40350014 09 41.915+54 15 42.55         18.35GVEE016I52
     K24E00E mC2024 03 02.40367014 09 42.545+54 15 40.64         18.93GVEE016I52
     K24E00E mC2024 03 02.40384014 09 43.168+54 15 38.48         18.72GVEE016I52
     K24E00E mC2024 03 02.40401314 09 43.812+54 15 36.22         18.49GVEE016I52
     K24E00E KC2024 03 02.83897214 35 44.491+52 32 06.72         18.6 GVEE016J95
     K24E00E hC2024 03 02.84355614 35 59.962+52 31 04.37         18.6 GVEE016J95
     K24E00E KC2024 03 02.87507 14 37 43.282+52 25 14.38         19.0 GVEE016B42
     K24E00E KC2024 03 02.87706 14 37 49.505+52 24 48.49         18.7 GVEE016B42
     K24E00E KC2024 03 02.87904 14 37 56.074+52 24 21.13         18.7 GVEE016B42
Observer details:
B42 Vitebsk.  Observer V. Nevski.  0.3-m f/5.0 0.3-m f/5.0 reflector + CMO.
F51 Pan-STARRS 1, Haleakala.  Observers J. Herman, T. Lowe, P. Minguez, A.
    Schultz, I. Smith.  Measurers K. Chambers, T. de Boer, J. Fairlamb, H.
    Gao, M. Huber, C.-C. Lin, E. Magnier, Y. Ramanjooloo, R. Wainscoat, R.
    Weryk.  1.8-m Ritchey-Chretien + CCD.
F52 Pan-STARRS 2, Haleakala.  Observers J. Herman, T. Lowe, P. Minguez, A.
    Schultz, I. Smith.  Measurers K. Chambers, T. de Boer, J. Fairlamb, H.
    Gao, M. Huber, C.-C. Lin, E. Magnier, Y. Ramanjooloo, R. Wainscoat, R.
    Weryk.  1.8-m Ritchey-Chretien + CCD.
G96 Mt. Lemmon Survey.  Observer K. W. Wierzchos.  Measurers T. Beuden, V. F.
    Carvajal, D. Fay, J. B. Fazekas, D. C. Fuls, A. R. Gibbs, A. D. Grauer, H.
    Groeller, J. K. Hogan, R. A. Kowalski, S. M. Larson, G. J. Leonard, D.
    Rankin, R. L. Seaman, F. C. Shelly, K. W. Wierzchos.  1.5-m reflector +
    10K CCD.
I52 Steward Observatory, Mt. Lemmon Station.  Observers T. Beuden, R. A.
    Kowalski.  Measurers T. Beuden, V. F. Carvajal, D. Fay, J. B. Fazekas, D.
    C. Fuls, A. R. Gibbs, A. D. Grauer, H. Groeller, J. K. Hogan, R. A.
    Kowalski, S. M. Larson, G. J. Leonard, D. Rankin, R. L. Seaman, F. C.
    Shelly, K. W. Wierzchos.  1.0-m prime focus + CCD.
J95 Great Shefford.  Observer P. Birtwhistle.  0.41-m f/6.3 Schmidt-Cassegrain
    + CCD.
Orbital elements:
2024 EE                                                  Earth MOID = 0.0236 AU
Epoch 2024 Mar. 31.0 TT = JDT 2460400.5                 Bell                    
M   6.22346              (2000.0)            P               Q                  
n   0.29400870     Peri.   20.31453     -0.98744002     -0.14779783             
a   2.2399033      Node   151.01075     +0.12432324     -0.94495430             
e   0.5538488      Incl.    6.61611     +0.09749839     -0.29191981             
P   3.35           H   24.69          G   0.15           U   7                  
Residuals in seconds of arc
240225 F51  0.1+  0.1-    240226 F52  0.1+  0.2+    240302 G96  0.1+  0.1+
240225 F52  0.0   0.2+    240226 F51  0.3-  0.2+    240302 G96  0.0   0.2+
240225 F51  0.1+  0.0     240226 F52  0.2+  0.1+    240302 I52  0.2-  0.2+
240225 F52  0.1-  0.1-    240301 F52  0.3+  0.2-    240302 I52  0.1-  0.3+
240225 F51  0.2+  0.0     240301 F52  0.2-  0.0     240302 I52  0.0   0.2+
240225 F52  0.0   0.1-    240301 F52  0.1-  0.1-    240302 I52  0.1+  0.0
240225 F51  0.0   0.1+    240302 G96 (2.4-  1.1+)   240302 J95  0.1-  0.1-
240225 F52  0.2-  0.3-    240302 G96  0.6-  0.3+    240302 J95  0.1+  0.5-
240226 F51 (1.3-  1.2-)   240302 G96  0.4-  0.2+    240302 B42  1.5+  1.2-
240226 F51  0.2-  0.2-    240302 G96  0.4+  0.0     240302 B42  0.4-  0.2+
240226 F52  0.1-  0.2-    240302 G96  0.1+  0.1-    240302 B42  1.2+  0.1-
240226 F51  0.0   0.0     240302 G96  0.3+  0.2+
Ephemeris:
2024 EE                  a,e,i = 2.24, 0.55, 7                   q = 0.9993
Date    TT    R. A. (2000) Decl.     Delta      r    Elong.  Phase     V
2024 02 01    06 51 59.8 +02 13 04   0.1430  1.1069   146.2    29.7    22.0
...
2024 02 16    07 04 19.1 +10 14 42   0.06955 1.0406   138.2    39.2    20.5
...
2024 02 24    07 56 27.8 +28 17 37   0.03558 1.0171   140.5    38.2    19.0
...
2024 03 01    12 23 53.3 +56 43 04   0.02417 1.0057   127.4    51.5    18.5
2024 03 02    13 42 13.8 +55 28 04   0.02518 1.0043   121.2    57.6    18.8
2024 03 03    14 44 01.0 +51 56 49   0.02702 1.0032   115.2    63.4    19.1
...
2024 03 09    16 58 27.2 +30 51 26   0.04755 0.9994    96.5    80.8    20.9
...
2024 03 17    17 33 54.5 +20 05 41   0.08193 1.0035    93.6    81.7    22.1
...
2024 04 01    17 49 50.9 +13 20 20   0.1459  1.0384   101.6    70.5    23.1
M. P. C. Staff               (C) Copyright 2024 MPC           M.P.E.C. 2024-E16
    
    
More information about the Iaude
mailing list